Showing default

KITSAT 3, 25756

Orbit data source: Space-Track

KITSAT 3, 25756 is a payload satellite owned by KAIST (KR) in SSO that was launched on Wed, 26 May 1999 UTC via a PSLV launch vehicle from the Sirharikota (SRI). Payload-class satellites include a variety of spacecraft equipped with specific instruments for various scientific and technological missions. These include communications satellites like Starlink; space stations such as the ISS; scientific satellites like the Hubble; Earth observation satellites from companies like Planet Labs, Umbra, and HawkEye 360; GPS; miniature CubeSats for education and research; and military/defense satellites.

Loading next visibility...
Identifier
25756, 1999-029A
Orbit
SSO
Country
Flag of UnknownUnknown / SKOR
Related business
Manufacturer
KAIST
Mission
Non-operational Civil Imaging
Bus & Motor
SI-200, Unknown motor
Mass
110 kg wet, 110 kg dry
Launch date (UTC)
1999-05-26 (26 years ago)
Launch vehicle
PSLV
Launch site
Sirharikota (SRI)
Object type
Payload
Rocket body
Debris
Shape & HBR
Box + 2 Pan, 0.8 m
Radar Cross Section
0.780 m², Medium (>0.1 m² and < 1m²)

Expand to show TLE details & history
Last TLE update: 1 day ago

TLE from 1 day ago
0 KITSAT 3
1 25756U 99029A   25304.60126779  .00000411  00000-0  10552-3 0  9998
2 25756  98.6444 327.5068 0012233 239.4602 120.5388 14.55628219401779
Epoch: 2025-10-31T14:25Z
TLE epoch observation values (Epoch: 2025-10-31T14:25:49.537Z)
Latitude
0.00006°
Longitude
70.90703°
Altitude
714.704 km
Speed
7.496 km/s
True Right ascension
21h 50m 01s
True Declination
0° 00' 00"
Sunlit
Object was in daylight at epoch
Visualization orbit readout
Latitude
Unknown
Longitude
Unknown
Altitude
Unknown
Speed
Unknown
Apparent Right ascension
Unknown
Apparent Declination
Unknown
Sunlit
N/A
Visualization observer readout
Local Sidereal Time
11:16:27
Azimuth
Unknown
Elevation
Unknown
Doppler factor
Unknown
Orbital elements
Apogee altitude
713.097 km
Perigee altitude
695.769 km
Semi-major axis
7,082.57 km
Eccentricity
0.00122
Inclination
98.6444°
RAAN
327.5068°
Arg. of periapsis
239.4602°
True anomaly
120.65944°
Mean anomaly
120.5388°
Eccentric anomaly
120.59913°
Mean motion
3.6413 °/min
Orbital period
98.87 mins
BSTAR
0.00010552
Loading maneuver chart data...
Computing Atmospheric mass density...
Loading historical data...
Loading historical data...
Loading historical data...
Loading historical data...
Loading historical data...
Loading historical data...
Loading historical data...
Other satellites on launch #29 in the year 1999 (1999-05-26 UTC)

Documentation

Showing up to 5 results
|